User: anonymous   Login
Location: Unspecified
(0.0000°N, 0.0000°E)
Time: 16:40:13
(UTC+00:00)
Language:

USA 189 - Orbit

View from above orbital plane
View from above orbital plane
View from above satellite
View from above satellite

Ground track
Ground track

The orbit data is extracted from the following two-line orbital elements,

1 29242U 06024C   17008.11044022 0.00000000  00000-0  00000-0 0    04
2 29242   7.7415  45.3494 0006149 153.2704 206.7733  1.04024193    08
Epoch (UTC): 08 January 2017 02:39:02
Eccentricity: 0.0006149
inclination: 7.7415°
perigee height: 34741 km
apogee height: 34791 km
right ascension of ascending node: 45.3494°
argument of perigee: 153.2704°
revolutions per day: 1.04024193
mean anomaly at epoch: 206.7733°
orbit number at epoch: 0

The dashed part of the orbit path shows where the satellite is in the earth's shadow,  

DLR